Weather in Pushkino

Russia / Republic of Crimea     45°32′22″N   34°18′17″E
temp.,
°C
wind,
m/s
gust,
m/s
humid.,
%
clouds,
%
prec.,
mm/h
press.,
hPa
HPBL,
m
27 february, sat
sat2700:00+7sw815890 0.0 1022395
03:00+7sw815900 0.0 1021416
06:00+6sw714900 0.0 1019399
09:00+8wsw814830 0.0 1019486
12:00+12wsw811670 0.0 1018693
15:00+13wsw79650 0.0 1018934
18:00+9n458377 0.0 1017426
21:00+6n6108789 1.5 1018611
28 february, sun
sun2800:00+5n5785100 1.4 1019541
03:00+5nnw4779100 1.4 1019552
06:00+4nnw4684100 0.1 1020497
09:00+3nnw468999 0.3 1021494
12:00+4nw4689100 0.4 1021565
15:00+6nw5665100 0.7 10221073
18:00+5nw467095 0.2 1022830
21:00+3wnw258798 0.4 1023374
1 march, mon
mon100:00+2wnw368693 0.1 1024248
03:00+2wnw249396 0.1 1024252
06:000w239698 0.0 102496
09:00+1wnw129399 0.1 1026173
12:00+4nnw226196 0.1 1026997
15:00+5nnw235798 0.1 1027992
18:00+5nne236197 0.1 1027943
21:00+3ne127299 0.1 1029100
2 march, tue
tue200:00+2nnw228186 0.1 103023
03:000n238977 0.1 103055
06:00−1nw338931 0.0 103058
09:00+2wnw247240 0.0 1031236
12:00+5wnw455716 0.0 10301094
15:00+6w675748 0.0 10281069
18:00+5w696980 0.0 1026848
21:00+3wsw6118073 0.0 1026416
3 march, wed
wed300:00+5wsw588098 0.0 1026284
03:00+3wnw349278 0.0 102686
06:00+2nnw22930 0.0 102627
09:00+4wsw23850 0.0 1027142
12:00+9w56620 0.0 1027813
15:00+11wnw57510 0.0 10261133
18:00+9wnw366047 0.0 1026224
21:00+5w337824 0.0 102772